INTELSAT 37E (IS-37E)

Last updated on Thu Oct 16 2025 00:02:49 GMT+0000 (Coordinated Universal Time)

1 42950U 17059A 25288.19650916 .00000000 00000+0 00000+0 0 9992 2 42950 0.0168 194.0390 0002922 15.6759 226.9904 1.00268360 29606
UTC large
Height (km)
Speed (km/s)
/
Latitude / Longitude
Inclination (degrees)
Orbital Period (minutes)
Azimuth
Elevation
Range (km)
Doppler Factor

Next 0 passes for location: London (51.5072 / 0.1276)

Sorry there are no passes over London.